[Date Prev][Date Next][Thread Prev][Thread Next] - [Date Index][Thread Index][Author Index]
2 Line ISS Keps 3-14
- Subject: [sarex] 2 Line ISS Keps 3-14
- From: "Dave Larsen Ph.D." <doc@xxxxxxxxxxx>
- Date: Fri, 14 Mar 2003 01:54:17 -0800
ISS
1 25544U 98067A 03073.36831881 .00022636 00000-0 29428-3 0 7806
2 25544 51.6348 136.4656 0008236 326.5586 133.0652 15.58658292246210
----
Via the sarex mailing list at AMSAT.ORG courtesy of AMSAT-NA.
To unsubscribe, send "unsubscribe sarex" to Majordomo@amsat.org
AMSAT Home